Time,TemperatureF,DewpointF,PressureIn,WindDirection,WindDirectionDegrees,WindSpeedMPH,WindSpeedGustMPH,Humidity,HourlyPrecipIn,Conditions,Clouds,dailyrainin,SolarRadiationWatts/m^2,SoftwareType,DateUTC
2013-05-31 00:01:00,67.0,64.0,-100.00,South,188,5.0,12.0,91,0.00,,,0.07,0.000000,,2013-05-31 05:01:00,
2013-05-31 00:22:00,67.0,64.0,-100.00,South,188,5.0,12.0,91,0.00,,,0.07,0.000000,,2013-05-31 05:22:00,
2013-05-31 00:32:00,67.0,64.0,-100.00,South,188,5.0,12.0,91,0.00,,,0.07,0.000000,,2013-05-31 05:32:00,
2013-05-31 00:42:00,67.0,64.0,-100.00,South,188,5.0,12.0,91,0.00,,,0.07,0.000000,,2013-05-31 05:42:00,
2013-05-31 00:52:00,67.0,64.0,-100.00,South,188,5.0,12.0,91,0.00,,,0.07,0.000000,,2013-05-31 05:52:00,
2013-05-31 01:01:00,66.0,63.0,-100.00,SSW,193,7.0,18.0,90,0.00,,,0.06,0.000000,,2013-05-31 06:01:00,
2013-05-31 01:22:00,66.0,63.0,-100.00,SSW,193,7.0,18.0,90,0.00,,,0.06,0.000000,,2013-05-31 06:22:00,
2013-05-31 01:32:00,66.0,63.0,-100.00,SSW,193,7.0,18.0,90,0.00,,,0.06,0.000000,,2013-05-31 06:32:00,
2013-05-31 01:42:00,66.0,63.0,-100.00,SSW,193,7.0,18.0,90,0.00,,,0.06,0.000000,,2013-05-31 06:42:00,
2013-05-31 01:52:00,66.0,63.0,-100.00,SSW,193,7.0,18.0,90,0.00,,,0.06,0.000000,,2013-05-31 06:52:00,
2013-05-31 02:01:00,67.0,63.0,-100.00,SSW,194,8.0,19.0,86,0.00,,,0.06,0.000000,,2013-05-31 07:01:00,
2013-05-31 02:21:00,67.0,63.0,-100.00,SSW,194,8.0,19.0,86,0.00,,,0.06,0.000000,,2013-05-31 07:21:00,
2013-05-31 02:32:00,67.0,63.0,-100.00,SSW,194,8.0,19.0,86,0.00,,,0.06,0.000000,,2013-05-31 07:32:00,
2013-05-31 02:42:00,67.0,63.0,-100.00,SSW,194,8.0,19.0,86,0.00,,,0.06,0.000000,,2013-05-31 07:42:00,
2013-05-31 02:52:00,67.0,63.0,-100.00,SSW,194,8.0,19.0,86,0.00,,,0.06,0.000000,,2013-05-31 07:52:00,
2013-05-31 03:01:00,65.0,60.0,-100.00,SSW,207,9.0,17.0,85,0.04,,,0.10,0.000000,,2013-05-31 08:01:00,
2013-05-31 03:22:00,65.0,60.0,-100.00,SSW,207,9.0,17.0,85,0.04,,,0.10,0.000000,,2013-05-31 08:22:00,
2013-05-31 03:32:00,65.0,60.0,-100.00,SSW,207,9.0,17.0,85,0.04,,,0.10,0.000000,,2013-05-31 08:32:00,
2013-05-31 03:42:00,65.0,60.0,-100.00,SSW,207,9.0,17.0,85,0.04,,,0.10,0.000000,,2013-05-31 08:42:00,
2013-05-31 03:52:00,65.0,60.0,-100.00,SSW,207,9.0,17.0,85,0.04,,,0.10,0.000000,,2013-05-31 08:52:00,
2013-05-31 04:01:00,62.0,60.0,-100.00,SW,217,5.0,15.0,93,0.01,,,0.11,0.000000,,2013-05-31 09:01:00,
2013-05-31 04:21:00,62.0,60.0,-100.00,SW,217,5.0,15.0,93,0.01,,,0.11,0.000000,,2013-05-31 09:21:00,
2013-05-31 04:32:00,62.0,60.0,-100.00,SW,217,5.0,15.0,93,0.01,,,0.11,0.000000,,2013-05-31 09:32:00,
2013-05-31 04:43:00,62.0,60.0,-100.00,SW,217,5.0,15.0,93,0.01,,,0.11,0.000000,,2013-05-31 09:43:00,
2013-05-31 04:53:00,62.0,60.0,-100.00,SW,217,5.0,15.0,93,0.01,,,0.11,0.000000,,2013-05-31 09:53:00,
2013-05-31 05:01:00,61.0,59.0,-100.00,SSW,211,5.0,13.0,94,0.00,,,0.11,0.000000,,2013-05-31 10:01:00,
2013-05-31 05:23:00,61.0,59.0,-100.00,SSW,211,5.0,13.0,94,0.00,,,0.11,0.000000,,2013-05-31 10:23:00,
2013-05-31 05:33:00,61.0,59.0,-100.00,SSW,211,5.0,13.0,94,0.00,,,0.11,0.000000,,2013-05-31 10:33:00,
2013-05-31 05:42:00,61.0,59.0,-100.00,SSW,211,5.0,13.0,94,0.00,,,0.11,0.000000,,2013-05-31 10:42:00,
2013-05-31 05:52:00,61.0,59.0,-100.00,SSW,211,5.0,13.0,94,0.00,,,0.11,0.000000,,2013-05-31 10:52:00,
2013-05-31 06:01:00,61.0,58.0,-100.00,SSW,208,7.0,14.0,91,0.00,,,0.11,8.000000,,2013-05-31 11:01:00,
2013-05-31 06:22:00,61.0,58.0,-100.00,SSW,208,7.0,14.0,91,0.00,,,0.11,8.000000,,2013-05-31 11:22:00,
2013-05-31 06:32:00,61.0,58.0,-100.00,SSW,208,7.0,14.0,91,0.00,,,0.11,8.000000,,2013-05-31 11:32:00,
2013-05-31 06:42:00,61.0,58.0,-100.00,SSW,208,7.0,14.0,91,0.00,,,0.11,8.000000,,2013-05-31 11:42:00,
2013-05-31 06:52:00,61.0,58.0,-100.00,SSW,208,7.0,14.0,91,0.00,,,0.11,8.000000,,2013-05-31 11:52:00,
2013-05-31 07:01:00,64.0,59.0,-100.00,South,190,8.0,15.0,84,0.00,,,0.11,112.000000,,2013-05-31 12:01:00,
2013-05-31 07:22:00,64.0,59.0,-100.00,South,190,8.0,15.0,84,0.00,,,0.11,112.000000,,2013-05-31 12:22:00,
2013-05-31 07:32:00,64.0,59.0,-100.00,South,190,8.0,15.0,84,0.00,,,0.11,112.000000,,2013-05-31 12:32:00,
2013-05-31 07:42:00,64.0,59.0,-100.00,South,190,8.0,15.0,84,0.00,,,0.11,112.000000,,2013-05-31 12:42:00,
2013-05-31 07:52:00,64.0,59.0,-100.00,South,190,8.0,15.0,84,0.00,,,0.11,112.000000,,2013-05-31 12:52:00,
2013-05-31 08:01:00,65.0,59.0,-100.00,SSW,210,8.0,16.0,82,0.00,,,0.11,253.000000,,2013-05-31 13:01:00,
2013-05-31 08:21:00,65.0,59.0,-100.00,SSW,210,8.0,16.0,82,0.00,,,0.11,253.000000,,2013-05-31 13:21:00,
2013-05-31 08:32:00,65.0,59.0,-100.00,SSW,210,8.0,16.0,82,0.00,,,0.11,253.000000,,2013-05-31 13:32:00,
2013-05-31 08:42:00,65.0,59.0,-100.00,SSW,210,8.0,16.0,82,0.00,,,0.11,253.000000,,2013-05-31 13:42:00,
2013-05-31 08:52:00,65.0,59.0,-100.00,SSW,210,8.0,16.0,82,0.00,,,0.11,253.000000,,2013-05-31 13:52:00,
2013-05-31 09:01:00,66.0,59.0,-100.00,SW,219,10.0,21.0,77,0.00,,,0.11,336.000000,,2013-05-31 14:01:00,
2013-05-31 09:22:00,66.0,59.0,-100.00,SW,219,10.0,21.0,77,0.00,,,0.11,336.000000,,2013-05-31 14:22:00,
2013-05-31 09:32:00,66.0,59.0,-100.00,SW,219,10.0,21.0,77,0.00,,,0.11,336.000000,,2013-05-31 14:32:00,
2013-05-31 09:42:00,66.0,59.0,-100.00,SW,219,10.0,21.0,77,0.00,,,0.11,336.000000,,2013-05-31 14:42:00,
2013-05-31 09:52:00,66.0,59.0,-100.00,SW,219,10.0,21.0,77,0.00,,,0.11,336.000000,,2013-05-31 14:52:00,
2013-05-31 10:01:00,68.0,57.0,-100.00,SW,215,10.0,22.0,68,0.00,,,0.11,513.000000,,2013-05-31 15:01:00,
2013-05-31 10:21:00,68.0,57.0,-100.00,SW,215,10.0,22.0,68,0.00,,,0.11,513.000000,,2013-05-31 15:21:00,
2013-05-31 10:33:00,68.0,57.0,-100.00,SW,215,10.0,22.0,68,0.00,,,0.11,513.000000,,2013-05-31 15:33:00,
2013-05-31 10:43:00,68.0,57.0,-100.00,SW,215,10.0,22.0,68,0.00,,,0.11,513.000000,,2013-05-31 15:43:00,
2013-05-31 10:53:00,68.0,57.0,-100.00,SW,215,10.0,22.0,68,0.00,,,0.11,513.000000,,2013-05-31 15:53:00,
2013-05-31 11:01:00,72.0,57.0,-100.00,SW,215,8.0,16.0,59,0.00,,,0.11,686.000000,,2013-05-31 16:01:00,
2013-05-31 11:22:00,72.0,57.0,-100.00,SW,215,8.0,16.0,59,0.00,,,0.11,686.000000,,2013-05-31 16:22:00,
2013-05-31 11:33:00,72.0,57.0,-100.00,SW,215,8.0,16.0,59,0.00,,,0.11,686.000000,,2013-05-31 16:33:00,
2013-05-31 11:42:00,72.0,57.0,-100.00,SW,215,8.0,16.0,59,0.00,,,0.11,686.000000,,2013-05-31 16:42:00,
2013-05-31 11:52:00,72.0,57.0,-100.00,SW,215,8.0,16.0,59,0.00,,,0.11,686.000000,,2013-05-31 16:52:00,
2013-05-31 12:01:00,75.0,56.0,-100.00,SSW,212,10.0,17.0,51,0.00,,,0.11,900.000000,,2013-05-31 17:01:00,
2013-05-31 12:22:00,75.0,56.0,-100.00,SSW,212,10.0,17.0,51,0.00,,,0.11,900.000000,,2013-05-31 17:22:00,
2013-05-31 12:32:00,75.0,56.0,-100.00,SSW,212,10.0,17.0,51,0.00,,,0.11,900.000000,,2013-05-31 17:32:00,
2013-05-31 12:42:00,75.0,56.0,-100.00,SSW,212,10.0,17.0,51,0.00,,,0.11,900.000000,,2013-05-31 17:42:00,
2013-05-31 12:52:00,75.0,56.0,-100.00,SSW,212,10.0,17.0,51,0.00,,,0.11,900.000000,,2013-05-31 17:52:00,
2013-05-31 13:01:00,76.0,54.0,-100.00,SSW,213,12.0,20.0,46,0.00,,,0.11,989.000000,,2013-05-31 18:01:00,
2013-05-31 13:22:00,76.0,54.0,-100.00,SSW,213,12.0,20.0,46,0.00,,,0.11,989.000000,,2013-05-31 18:22:00,
2013-05-31 13:32:00,76.0,54.0,-100.00,SSW,213,12.0,20.0,46,0.00,,,0.11,989.000000,,2013-05-31 18:32:00,
2013-05-31 13:42:00,76.0,54.0,-100.00,SSW,213,12.0,20.0,46,0.00,,,0.11,989.000000,,2013-05-31 18:42:00,
2013-05-31 13:52:00,76.0,54.0,-100.00,SSW,213,12.0,20.0,46,0.00,,,0.11,989.000000,,2013-05-31 18:52:00,
2013-05-31 14:01:00,80.0,55.0,-100.00,SW,226,11.0,23.0,42,0.00,,,0.11,1027.000000,,2013-05-31 19:01:00,
2013-05-31 14:22:00,80.0,55.0,-100.00,SW,226,11.0,23.0,42,0.00,,,0.11,1027.000000,,2013-05-31 19:22:00,
2013-05-31 14:32:00,80.0,55.0,-100.00,SW,226,11.0,23.0,42,0.00,,,0.11,1027.000000,,2013-05-31 19:32:00,
2013-05-31 14:42:00,80.0,55.0,-100.00,SW,226,11.0,23.0,42,0.00,,,0.11,1027.000000,,2013-05-31 19:42:00,
2013-05-31 14:52:00,80.0,55.0,-100.00,SW,226,11.0,23.0,42,0.00,,,0.11,1027.000000,,2013-05-31 19:52:00,
2013-05-31 15:01:00,80.0,56.0,-100.00,SSW,197,10.0,20.0,44,0.00,,,-99.99,709.000000,,2013-05-31 20:01:00,
2013-05-31 15:22:00,80.0,56.0,-100.00,SSW,197,10.0,20.0,44,0.00,,,-99.99,709.000000,,2013-05-31 20:22:00,
2013-05-31 15:32:00,80.0,56.0,-100.00,SSW,197,10.0,20.0,44,0.00,,,-99.99,709.000000,,2013-05-31 20:32:00,
2013-05-31 15:42:00,80.0,56.0,-100.00,SSW,197,10.0,20.0,44,0.00,,,-99.99,709.000000,,2013-05-31 20:42:00,
2013-05-31 15:52:00,80.0,56.0,-100.00,SSW,197,10.0,20.0,44,0.00,,,-99.99,709.000000,,2013-05-31 20:52:00,
2013-05-31 16:01:00,75.0,52.0,-100.00,South,184,11.0,21.0,45,0.00,,,0.09,569.000000,,2013-05-31 21:01:00,
2013-05-31 16:22:00,75.0,52.0,-100.00,South,184,11.0,21.0,45,0.00,,,0.09,569.000000,,2013-05-31 21:22:00,
2013-05-31 16:33:00,75.0,52.0,-100.00,South,184,11.0,21.0,45,0.00,,,0.09,569.000000,,2013-05-31 21:33:00,
2013-05-31 16:43:00,75.0,52.0,-100.00,South,184,11.0,21.0,45,0.00,,,0.09,569.000000,,2013-05-31 21:43:00,
2013-05-31 16:54:00,75.0,52.0,-100.00,South,184,11.0,21.0,45,0.00,,,0.09,569.000000,,2013-05-31 21:54:00,
2013-05-31 17:01:00,76.0,57.0,-100.00,South,179,5.0,18.0,52,0.00,,,0.07,342.000000,,2013-05-31 22:01:00,
2013-05-31 17:22:00,76.0,57.0,-100.00,South,179,5.0,18.0,52,0.00,,,0.07,342.000000,,2013-05-31 22:22:00,
2013-05-31 17:33:00,76.0,57.0,-100.00,South,179,5.0,18.0,52,0.00,,,0.07,342.000000,,2013-05-31 22:33:00,
2013-05-31 17:42:00,76.0,57.0,-100.00,South,179,5.0,18.0,52,0.00,,,0.07,342.000000,,2013-05-31 22:42:00,
2013-05-31 17:53:00,76.0,57.0,-100.00,South,179,5.0,18.0,52,0.00,,,0.07,342.000000,,2013-05-31 22:53:00,
2013-05-31 18:01:00,71.0,59.0,-100.00,SSW,209,6.0,11.0,65,0.00,,,0.06,103.000000,,2013-05-31 23:01:00,
2013-05-31 18:22:00,71.0,59.0,-100.00,SSW,209,6.0,11.0,65,0.00,,,0.06,103.000000,,2013-05-31 23:22:00,
2013-05-31 18:32:00,71.0,59.0,-100.00,SSW,209,6.0,11.0,65,0.00,,,0.06,103.000000,,2013-05-31 23:32:00,
2013-05-31 18:42:00,71.0,59.0,-100.00,SSW,209,6.0,11.0,65,0.00,,,0.06,103.000000,,2013-05-31 23:42:00,
2013-05-31 18:52:00,71.0,59.0,-100.00,SSW,209,6.0,11.0,65,0.00,,,0.06,103.000000,,2013-05-31 23:52:00,
2013-05-31 19:01:00,58.0,52.0,-100.00,West,270,15.0,34.0,79,0.04,,,0.09,58.000000,,2013-06-01 00:01:00,
2013-05-31 19:22:00,58.0,52.0,-100.00,West,270,15.0,34.0,79,0.04,,,0.09,58.000000,,2013-06-01 00:22:00,
2013-05-31 19:32:00,58.0,52.0,-100.00,West,270,15.0,34.0,79,0.04,,,0.09,58.000000,,2013-06-01 00:32:00,
2013-05-31 19:42:00,58.0,52.0,-100.00,West,270,15.0,34.0,79,0.04,,,0.09,58.000000,,2013-06-01 00:42:00,
2013-05-31 19:52:00,58.0,52.0,-100.00,West,270,15.0,34.0,79,0.04,,,0.09,58.000000,,2013-06-01 00:52:00,
2013-05-31 20:01:00,56.0,53.0,-100.00,SW,217,1.0,30.0,90,0.04,,,0.13,15.000000,,2013-06-01 01:01:00,
2013-05-31 20:22:00,56.0,53.0,-100.00,SW,217,1.0,30.0,90,0.04,,,0.13,15.000000,,2013-06-01 01:22:00,
2013-05-31 20:32:00,56.0,53.0,-100.00,SW,217,1.0,30.0,90,0.04,,,0.13,15.000000,,2013-06-01 01:32:00,
2013-05-31 20:42:00,56.0,53.0,-100.00,SW,217,1.0,30.0,90,0.04,,,0.13,15.000000,,2013-06-01 01:42:00,
2013-05-31 20:52:00,56.0,53.0,-100.00,SW,217,1.0,30.0,90,0.04,,,0.13,15.000000,,2013-06-01 01:52:00,
2013-05-31 21:01:00,56.0,54.0,-100.00,NW,304,3.0,12.0,92,0.00,,,0.13,7.000000,,2013-06-01 02:01:00,
2013-05-31 21:22:00,56.0,54.0,-100.00,NW,304,3.0,12.0,92,0.00,,,0.13,7.000000,,2013-06-01 02:22:00,
2013-05-31 21:32:00,56.0,54.0,-100.00,NW,304,3.0,12.0,92,0.00,,,0.13,7.000000,,2013-06-01 02:32:00,
2013-05-31 21:42:00,56.0,54.0,-100.00,NW,304,3.0,12.0,92,0.00,,,0.13,7.000000,,2013-06-01 02:42:00,
2013-05-31 21:52:00,56.0,54.0,-100.00,NW,304,3.0,12.0,92,0.00,,,0.13,7.000000,,2013-06-01 02:52:00,
2013-05-31 22:01:00,56.0,54.0,-100.00,SSW,197,5.0,13.0,92,0.01,,,0.14,0.000000,,2013-06-01 03:01:00,
2013-05-31 22:22:00,56.0,54.0,-100.00,SSW,197,5.0,13.0,92,0.01,,,0.14,0.000000,,2013-06-01 03:22:00,
2013-05-31 22:33:00,56.0,54.0,-100.00,SSW,197,5.0,13.0,92,0.01,,,0.14,0.000000,,2013-06-01 03:33:00,
2013-05-31 22:43:00,56.0,54.0,-100.00,SSW,197,5.0,13.0,92,0.01,,,0.14,0.000000,,2013-06-01 03:43:00,
2013-05-31 22:53:00,56.0,54.0,-100.00,SSW,197,5.0,13.0,92,0.01,,,0.14,0.000000,,2013-06-01 03:53:00,
2013-05-31 23:01:00,54.0,52.0,-100.00,NW,304,2.0,10.0,93,0.05,,,0.19,0.000000,,2013-06-01 04:01:00,
2013-05-31 23:23:00,54.0,52.0,-100.00,NW,304,2.0,10.0,93,0.05,,,0.19,0.000000,,2013-06-01 04:23:00,
2013-05-31 23:33:00,54.0,52.0,-100.00,NW,304,2.0,10.0,93,0.05,,,0.19,0.000000,,2013-06-01 04:33:00,
2013-05-31 23:42:00,54.0,52.0,-100.00,NW,304,2.0,10.0,93,0.05,,,0.19,0.000000,,2013-06-01 04:42:00,
2013-05-31 23:53:00,54.0,52.0,-100.00,NW,304,2.0,10.0,93,0.05,,,0.19,0.000000,,2013-06-01 04:53:00,